Regional Weather Roundup
Issued by NWS Charleston, SC

Current Version | Previous Version | Graphics & Text | Print | Product List | Glossary On
Versions: 1 2 3 4 5 6 7 8 9 10 11 12 13 14 15 16 17 18 19 20 21 22 23 24 25 26 27 28 29 30 31 32 33 34 35 36 37 38 39 40 41 42 43 44 45 46 47 48 49 50
000 ASUS42 KCHS 222243 RWRCHS REGIONAL WEATHER ROUNDUP NATIONAL WEATHER SERVICE CHARLESTON SC 600 PM EDT FRI SEP 22 2017 NOTE: "FAIR" INDICATES FEW OR NO CLOUDS BELOW 12,000 FEET WITH NO SIGNIFICANT WEATHER AND/OR OBSTRUCTIONS TO VISIBILITY. NOT ALL STATIONS ARE QUALITY CONTROLLED. USE DATA WITH CAUTION... ESPECIALLY DEWPOINT OBSERVATIONS. SCZ027-030-031-034>040-042>050-222300- ...SOUTHEAST SOUTH CAROLINA... CITY SKY/WX TMP DP RH WIND PRES REMARKS N CHARLESTON PTSUNNY 81 70 69 SE7 29.98S WATERFRONT PRK N/A 80 72 76 E7 29.82F JOHNS ISLAND FAIR 81 72 74 E5 29.99R PINOPOLIS N/A 84 72 65 VRB2 29.91S MONCKS CORNER FAIR 81 70 69 S6 29.98S SUMMERVILLE MOCLDY 82 70 65 SE3 30.00R BEAUFORT MCAS MOSUNNY 82 74 76 E8 29.98R BEAUFORT ARPT FAIR 81 70 69 E7 29.98R HILTON HEAD IS SUNNY 82 73 74 CALM 29.98F WALTERBORO CLEAR 84 70 61 SE12 29.99R ALLENDALE NOT AVBL ...SOUTHERN MIDLANDS AND PEE DEE... CITY SKY/WX TMP DP RH WIND PRES REMARKS GEORGETOWN FAIR 79 73 83 E8 30.00S KINGSTREE FAIR 82 68 61 CALM 29.98S ORANGEBURG PTSUNNY 86 67 52 E6 29.98S BARNWELL FAIR 82 73 74 CALM 29.98S AIKEN FAIR 79 70 73 CALM 30.03S MANNING FAIR 82 72 69 MISG 29.99R COLUMBIA MOSUNNY 83 67 58 VRB3 29.98R HAZE SUMTER MOSUNNY 85 64 48 E3 29.97R FLORENCE SUNNY 85 64 49 E7 29.99S MYRTLE BEACH MOSUNNY 81 73 76 SE7 30.01R N MYRTLE BEACH SUNNY 81 73 76 SE5 29.99R $$ GAZ063-065-086>088-099>101-113>116-118-119-134>141-150-222300- ...SOUTHEAST GEORGIA... CITY SKY/WX TMP DP RH WIND PRES REMARKS SAVANNAH ARPT MOSUNNY 85 69 58 SE10 29.97S HUNTER AAF SUNNY 84 68 57 E9 29.95S FORT STEWART MOSUNNY 85 69 58 E7 29.96R STATESBORO SUNNY 86 66 51 CALM 29.97S SYLVANIA PTCLDY 82 72 72 E6 29.99R CLAXTON FAIR 87 71 59 E6 29.97S HX 92 ...CSRA...CENTRAL AND FAR SOUTHEAST GEORGIA... CITY SKY/WX TMP DP RH WIND PRES REMARKS THOMSON CLOUDY 79 67 66 CALM 30.04S AUGUSTA-BUSH CLOUDY 78 69 73 CALM 29.97F AUGUSTA-DANIEL CLOUDY 77 72 84 CALM 30.00S SWAINSBORO FAIR 72 72 100 CALM 29.99S VIDALIA MOSUNNY 81 68 65 NW5 29.98F EASTMAN FAIR 81 57 43 E8 30.00F HAZLEHURST FAIR 88 53 29 N12G18 29.96S ALMA SUNNY 87 67 51 VRB3 29.95S HX 90 WAYCROSS SUNNY 86 66 51 E9 29.96R JESUP NOT AVBL BAXLEY FAIR 82 68 61 NE7 29.96S BRUNSWICK MOSUNNY 81 70 69 NE12 29.98S SAINT SIMONS MOSUNNY 83 74 74 NE14 29.96F $$ SCZ027-028-034-036>038-045-046-048>050-GAZ119-141-222300- ...LAKE AND SUPPLEMENTAL COASTAL OBSERVATIONS... STATION/POSITION TIME TEMP WIND PRES WAVE SWELL AIR SEA DIR/SP/G HT/PER HT/PER/DIR (UTC) (F) (DEG/KT/KT) (MB) (FT/S) (FT/S/D) WINYAH BAY 2145 80 100/ 6 1016.0S LAKE MURRAY 2220 85 40/ 2/ 4 1014.6R ACE BASIN NERRS 2145 82 50/ 2 1015.0S FORT PULASKI 2200 80 81 100/ 8/ 9 1015.5 SAPELO ISLAND 2200 83 CALM 1015.0 $$ ANZ835-935-AMZ111-154-330-350-352-354-370-450-454-472-222300- ...C-MAN AND BUOY OBSERVATIONS... STATION/POSITION TIME TEMP WIND PRES WAVE SWELL AIR SEA DIR/SP/G HT/PER HT/PER/DIR (UTC) (F) (DEG/KT/KT) (MB) (FT/S) (FT/S/D) BUOY 41004 2210 80 82 60/ 8/ 10 1014.5 BUOY 41008 2150 80 81 70/ 12/ 14 1014.5F 4/11 3/140/11 FOLLY BEACH CMAN 2200 80 80/ 11/ 12 1015.9S CAPERS NEARSHORE NOT AVBL FRIPP NEARSHORE 2208 81 90/ 10/ 14 1020.3F STATION/POSITION TIME TEMP WIND PRES WAVE SWELL AIR SEA DIR/SP/G HT/PER HT/PER/DIR (UTC) (F) (DEG/KT/KT) (MB) (FT/S) (FT/S/D) 5E ST. MARYS GA 2200 83 N/A 4/11 2/110/11 FRYING PAN BUOY 2210 81 83 100/ 8/ 10 1015.1 BUOY 41025 2150 78 79 220/ 4/ 6 1015.6R 6/13 5/ 90/13 CAPE LOOKOUT NC 2200 79 150/ 6/ 6 1015.5R BUOY 41002 2150 79 80 60/ 10/ 12 1014.5F 7/12 7/100/12 BUOY 41010 2210 110/ 12/ 16 1013.2 ST AUGUSTINE FL 2200 81 84 70/ 15/ 16 1013.7F $$

USA.gov is the U.S. government's official web portal to all federal, state and local government web resources and services.